Location: Ocean City
(38.3360°N, 75.0850°W)
Time: 19:45:29
(UTC-04:00)

MOZHAYETS 4 - Pass Details

Date: 23 May 2019
Orbit: 661 x 681 km, 98.0° (Epoch: 20 June)

Event Time Altitude Azimuth Distance (km) Brightness Sun altitude
Exits shadow 03:31:46 50° 237° (WSW) 861 7.8 -20.8°
Maximum altitude 03:32:14 52° 260° (W) 837 7.9 -20.8°
Drops below altitude 10° 03:36:45 10° 337° (NNW) 2,111 10.6 -20.2°
Sets 03:39:02 0° 342° (NNW) 3,026 11.5 -19.9°
